Location: Unspecified
(20.0000°S, 0.0000°E)
Time: 22:19:18
(UTC+00:00)

BEESAT - Pass Details

Date: 31 August 2019
Orbit: 701 x 708 km, 98.6° (Epoch: 15 September)

Event Time Altitude Azimuth Distance (km) Brightness Sun altitude
Rises 04:09:50 0° 146° (SE) 3,104 ? -28.9°
Reaches altitude 10° 04:12:40 10° 128° (SE) 2,179 ? -28.2°
Maximum altitude 04:16:08 20° 82° (E) 1,606 ? -27.4°
Drops below altitude 10° 04:19:33 10° 35° (NE) 2,162 ? -26.6°
Sets 04:22:20 0° 18° (NNE) 3,073 ? -26.0°
